Home   Weather   Manaus   Past weeks
Flag for Brazil

Past Weather in Manaus, Amazonas, Brazil — Yesterday and Last 2 Weeks

Now
77 °F

Broken clouds.


Feels Like: 78 °F
Forecast: 88 / 75 °F
Wind: 2 mph from South

Location: Manaus Aeroporto

Current Time: Oct 23, 2019 at 6:54:25 am

Latest Report: Oct 23, 2019 at 6:00 am


Visibility: N/A

Pressure: 29.83 "Hg

Humidity: 94%

Dew Point: 75 °F

Location of ManausLocation

Past Weather in Manaus — Graph

°F

Manaus Temperature Yesterday

Maximum temperature yesterday: 91 °F (at 2:00 pm)
Minimum temperature yesterday: 75 °F (at 5:00 am)
Average temperature yesterday: 81 °F

High & Low Weather Summary for the Past Weeks

 TemperatureHumidityPressure
High91 °F (Oct 8, 2:00 pm)100% (Oct 15, 7:00 am)29.98 "Hg (Oct 15, 7:00 am)
Low72 °F (Oct 15, 7:00 am)49% (Oct 22, 2:00 pm)29.74 "Hg (Oct 8, 2:00 pm)
Average81 °F82%29.85 "Hg
* Reported Oct 8 5:00 am — Oct 23 5:00 am, Manaus. Weather by CustomWeather, © 2019

Note: Actual official high and low records may vary slightly from our data, if they occured in-between our weather recording intervals... More about our weather records

Advertising

Manaus Weather History for the Previous 24 Hours

Scroll right to see more
 ConditionsComfort  
Time TempWeatherWind HumidityBarometerVisibility
5:00 am
Wed, Oct 23
77 °FPassing clouds.No wind94%29.80 "HgN/A
4:00 am77 °FPassing clouds.2 mph94%29.80 "HgN/A
3:00 am77 °FPassing clouds.No wind94%29.80 "HgN/A
2:00 am77 °FPartly cloudy.2 mph94%29.83 "HgN/A
1:00 am79 °FPassing clouds.3 mph89%29.86 "HgN/A
12:00 am79 °FClear.5 mph84%29.86 "Hg10 mi
11:00 pm
Tue, Oct 22
79 °FThundershowers. Passing clouds.6 mph84%29.86 "HgN/A
10:00 pm79 °FThundershowers. Passing clouds.2 mph84%29.86 "HgN/A
9:00 pm79 °FThundershowers. Passing clouds.7 mph84%29.86 "HgN/A
8:00 pm79 °FThundershowers. Passing clouds.8 mph79%29.83 "HgN/A
7:00 pm81 °FThundershowers. Passing clouds.7 mph74%29.80 "HgN/A
6:00 pm81 °FPartly cloudy.9 mph79%29.80 "HgN/A
5:00 pm84 °FBroken clouds.6 mph70%29.77 "HgN/A
4:00 pm81 °FScattered showers. Broken clouds.3 mph84%29.74 "HgN/A
3:00 pm82 °FThunderstorms. Broken clouds.7 mph74%29.74 "HgN/A
2:24 pm91 °FThunderstorms. Scattered clouds.3 mph56%29.74 "HgN/A
2:00 pm91 °FScattered clouds.3 mph49%29.77 "HgN/A
1:00 pm90 °FScattered clouds.6 mph59%29.80 "HgN/A
12:00 pm90 °FScattered clouds.3 mph63%29.86 "HgN/A
11:00 am86 °FScattered clouds.5 mph66%29.92 "HgN/A
10:00 am84 °FPassing clouds.5 mph70%29.92 "HgN/A
9:00 am82 °FPassing clouds.2 mph74%29.92 "HgN/A
8:00 am81 °FSunny.3 mph79%29.92 "Hg10 mi
7:00 am79 °FPassing clouds.2 mph84%29.89 "HgN/A
6:00 am75 °FScattered clouds.2 mph89%29.89 "HgN/A
Weather by CustomWeather, © 2019

See weather overview